STARLINK-5669, 55459

Orbit data source: Space-Track

STARLINK-5669, 55459 is a payload satellite owned by SpaceX/Seattle (US) in LEO that was launched on Thu, 02 Feb 2023 UTC via an FALCON 9 launch vehicle from the Air Force Eastern Test Range (AFETR). Payload-class satellites include a variety of spacecraft equipped with specific instruments for various scientific and technological missions. These include communications satellites like Starlink; space stations such as the ISS; scientific satellites like the Hubble; Earth observation satellites from companies like Planet Labs, Umbra, and HawkEye 360; GPS; miniature CubeSats for education and research; and military/defense satellites.

Loading next visibility...
Identifier
55459, 2023-015L
Orbit
LEO
Country
Flag of USUS
Related business
Manufacturer
SpaceX/Seattle
Mission
Operational Commercial Communications
Bus & Motor
STARLINK, Unknown motor
Mass
305 kg wet, ~290 kg dry
Launch date (UTC)
2023-02-02 (3 years ago)
Launch vehicle
FALCON 9
Launch site
Air Force Eastern Test Range (AFETR)
Object type
Payload
Rocket body
Debris
Shape & HBR
Box + 1 Pan, 10.1 m
Radar Cross Section
13.562 m², Large (>1 m²)

Expand to show TLE details & history
Last TLE update: 13 hours ago

TLE from 13 hours ago
0 STARLINK-5669
1 55459U 23015L   25340.42921303  .00000507  00000-0  52575-4 0  9997
2 55459  43.0034 112.8753 0001051 275.7934  84.2789 15.02527360156725
Epoch: 2025-12-06T10:18Z
TLE epoch observation values (Epoch: 2025-12-06T10:18:04.005Z)
Latitude
Longitude
-117.09846°
Altitude
558.812 km
Speed
7.584 km/s
True Right ascension
07h 31m 30s
True Declination
0° 00' 00"
Sunlit
Object was in full shadow at epoch
Visualization orbit readout
Latitude
Unknown
Longitude
Unknown
Altitude
Unknown
Speed
Unknown
Apparent Right ascension
Unknown
Apparent Declination
Unknown
Sunlit
N/A
Visualization observer readout
Local Sidereal Time
21:04:03
Azimuth
Unknown
Elevation
Unknown
Doppler factor
Unknown
Orbital elements
Apogee altitude
561.759 km
Perigee altitude
560.3 km
Semi-major axis
6,939.166 km
Eccentricity
0.00011
Inclination
43.0034°
RAAN
112.8753°
Arg. of periapsis
275.7934°
True anomaly
84.29088°
Mean anomaly
84.2789°
Eccentric anomaly
84.28489°
Mean motion
3.75476 °/min
Orbital period
95.88 mins
BSTAR
0.000052575
Loading maneuver chart data...
Computing Atmospheric mass density...
Loading historical data...
Loading historical data...
Loading historical data...
Loading historical data...
Loading historical data...
Loading historical data...
Loading historical data...

Documentation

Showing up to 5 results
|